Location: Serpentine
(32.3617°S, 115.9768°E)
Time: 10:40:06
(UTC+08:00)

X-37B - Pass Details

Date: 10 December 2021
Orbit: 334 x 337 km, 45.0° (Epoch: 11 January)

Event Time Altitude Azimuth Distance (km) Brightness Sun altitude
Exits shadow 04:04:50 19° 321° (NW) 906 1.8 -11.1°
Maximum altitude 04:06:44 60° 37° (NE) 397 0.6 -10.8°
Drops below altitude 10° 04:09:36 10° 118° (ESE) 1,294 4.8 -10.3°
Sets 04:11:39 0° 121° (ESE) 2,140 6.7 -9.9°
